Regional Weather Roundup
Issued by NWS

Home | Current Version | Previous Version | Graphics & Text | Print | Product List | Glossary On
Versions: 1 2 3 4 5 6 7 8 9 10 11 12 13 14 15 16 17 18 19 20 21 22 23 24 25 26 27 28
000
ASUS45 KCYS 182110
RWRWY

WYOMING REGIONAL WEATHER ROUNDUP
NATIONAL WEATHER SERVICE CHEYENNE WY
300 PM MDT FRI APR 18 2014

NOTE:  "FAIR" INDICATES FEW OR NO CLOUDS BELOW 12,000 FEET
WITH NO SIGNIFICANT WEATHER AND/OR OBSTRUCTIONS TO VISIBILITY.

WYZ001-182200-
YELLOWSTONE NATIONAL PARK

CITY           SKY/WX    TMP DP  RH WIND       PRES   REMARKS
LK YELLOWSTONE   N/A     37  29  72 VRB7G21   29.93S WCI  32
W YELLOWSTONE  NOT AVBL

$$
WYZ002>013-054>058-071-098>099-182200-
NORTHERN WYOMING

CITY           SKY/WX    TMP DP  RH WIND       PRES   REMARKS
JACKSON        MOSUNNY   45  36  70 S23       29.94F
CODY           CLOUDY    57  36  44 SW15G24   29.76S
GREYBULL       CLOUDY    65  37  35 W17G25    29.71R
WORLAND        CLOUDY    67  33  28 W12G18    29.70R
SHERIDAN         N/A     63  27  25 SW28G36     N/A
BUFFALO        CLOUDY    64  33  31 W24G32    29.72R
GILLETTE       CLOUDY    71  31  22 SW29G36   29.66S
HULETT         FAIR      70  34  26 SW21G33   29.65
NEWCASTLE      FAIR      66  32  28 MISG      29.73

$$
WYZ014>020-022>026-101>103-182200-
CENTRAL WYOMING

CITY           SKY/WX    TMP DP  RH WIND       PRES   REMARKS
BIG PINEY      CLOUDY    50  31  48 NW23G31   30.00R
PINEDALE       CLOUDY    46  32  57 W22G31    29.98F
DUBOIS         FAIR      45  34  65 W10G20    29.89F
LANDER         PTSUNNY   62  34  35 W32G48    29.81R
RIVERTON       PTSUNNY   65  29  25 W35G44    29.80R
CASPER         CLOUDY    70  25  18 SW33G51   29.76S
DOUGLAS        CLOUDY    70  31  23 W15       29.78F

$$
WYZ021-027>030-104>119-182200-
SOUTHERN WYOMING

CITY           SKY/WX    TMP DP  RH WIND       PRES   REMARKS
EVANSTON       PTSUNNY   57  30  35 W23G30    30.01R
KEMMERER       MOCLDY    54  34  47 W26G33    30.01R
FORT BRIDGER   FAIR      61  27  27 W24G32    30.00S
ROCK SPRINGS   PTSUNNY   68  17  14 W30G43    29.92R
DIXON          FAIR      70  24  17 SW22G33   29.96F
RAWLINS        PTSUNNY   68  20  16 SW38G46   29.90S
SARATOGA       FAIR      70  23  17 SW32G38   29.94F
LARAMIE        PTSUNNY   66  23  19 SW32G39   29.94F
CHEYENNE       PTSUNNY   71  28  20 S17G25    29.93S
TORRINGTON     CLOUDY    79  28  15 SW21G38   29.77F
PINE BLUFFS    FAIR      73  28  19 S13G26    29.90F

$$



USA.gov is the U.S. government's official web portal to all federal, state and local government web resources and services.